AirNav   Pilot Hours Calculator
 
 587 users online  

3PS0 Chester County Hospital Heliport
West Chester, Pennsylvania, USA

GOING TO WEST CHESTER?


FAA INFORMATION EFFECTIVE 30 JANUARY 2020

Location

FAA Identifier: 3PS0
Lat/Long: 39-58-14.7600N 075-36-12.2900W
39-58.246000N 075-36.204833W
39.9707667,-75.6034139
(estimated)
Elevation: 460 ft. / 140 m (estimated)
Variation: 11W (1985)
Time zone: UTC -5 (UTC -4 during Daylight Saving Time)
Zip code: 19380

Heliport Operations

Heliport use: Private use, MEDICAL USE.
Activation date: 02/1987
Control tower: no
ARTCC: NEW YORK CENTER
FSS: WILLIAMSPORT FLIGHT SERVICE STATION
Attendance: CONTINUOUS
Wind indicator: lighted
Segmented circle: no

Heliport Communications

WX AWOS-3T at OQN (1.5 nm NE): 121.4 ((610) 692-6190)
WX AWOS-3 at MQS (12 nm W): 126.25 (610-384-6132)
WX ASOS at PTW (16 nm N): 119.425 (610-495-0823)
WX ASOS at ILG (18 nm S): PHONE 302-328-1536
WX ASOS at PHL (18 nm E): PHONE 215-492-9617
WX AWOS-3 at LOM (18 nm NE): 118.925 (215-646-1068)

Nearby radio navigation aids

VOR radial/distance  VOR name  Freq  Var
MXEr053/4.4MODENA VORTAC113.2009W
PTWr196/15.2POTTSTOWN VORTAC116.5009W
DQOr011/17.6DUPONT VORTAC114.0010W
OODr335/24.4WOODSTOWN VORTAC112.8010W
LRPr115/32.8LANCASTER VOR/DME117.3009W
ARDr252/36.2YARDLEY VOR/DME108.2010W
ETXr183/36.8EAST TEXAS VOR/DME110.2009W
VCNr322/39.2CEDAR LAKE VOR/DME115.2010W

 
NDB name  Hdg/Dist  Freq  Var  ID
AMBLER250/17.327512WING .. -. --.
RAINBOW338/39.636311WRNB .-. -. -...

Heliport Services

Runway Information

Helipad H1

Dimensions: 50 x 50 ft. / 15 x 15 m
Surface: concrete
Operational restrictions: 090 DEGREES INGRESS, 270 DEGREES EGRESS.
Latitude: 39-58.246000N
Longitude: 075-36.204833W
Elevation: 460.0 ft.
Traffic pattern: leftleft

Heliport Ownership and Management from official FAA records

Ownership: Privately-owned
Owner: CHESTER COUNTY HOSPITAL
701 EAST MARSHALL STREET
WEST CHESTER, PA 19380
Phone (610) 431-5000
Manager: JOHN FELICETTI
701 EAST MARSHALL STREET
WEST CHESTER, PA 19380
Phone (610) 431-5558

Additional Remarks

FOR CD CTC PHILADELPHIA APCH AT 800-354-9884.

Instrument Procedures

There are no published instrument procedures at 3PS0.

Some nearby airports with instrument procedures:

KOQN - Brandywine Regional Airport (2 nm NE)
N57 - New Garden Airport (11 nm SW)
KMQS - Chester County G O Carlson Airport (12 nm W)
N10 - Perkiomen Valley Airport (16 nm NE)
KPTW - Heritage Field Airport (16 nm N)
7N7 - Spitfire Aerodrome (17 nm SE)
KILG - New Castle Airport (18 nm S)
N47 - Pottstown Municipal Airport (18 nm N)
KPHL - Philadelphia International Airport (18 nm E)
KLOM - Wings Field Airport (18 nm NE)
 
Loc | Ops | Rwys | IFR | FBO | Links
Com | Nav | Svcs | Stats | Notes
Area around 3PS0 (Chester County Hospital Heliport)
 
Road maps at: MapQuest Bing Google
 
Aerial photo
No photo
 
Sectional chart

 
Airport distance calculator
Flying to Chester County Hospital Heliport? Find the distance to fly.

From to 3PS0

Sunrise and sunset
Times for 23-Feb-2020
 Local
(UTC-5)
 Zulu
(UTC)
Morning civil twilight06:1811:18
Sunrise06:4611:46
Sunset17:4622:46
Evening civil twilight18:1423:14

Current date and time
Zulu (UTC)  23-Feb-2020 13:00:28
Local (UTC-5)  23-Feb-2020 08:00:28
 
METAR
KOQN 
2nm NE 
231235Z AUTO 00000KT 10SM CLR M01/M10 A3025 RMK AO2
KMQS 
12nm W 
231235Z AUTO 00000KT 10SM CLR 01/M13 A3025 RMK AO2
KPTW 
16nm N 
231254Z AUTO 00000KT 7SM CLR M04/M08 A3026 RMK AO2 SLP248 T10391078
KPHL 
18nm E 
231254Z 21004KT 10SM CLR 01/M05 A3028 RMK AO2 SLP252 T00111050 $
KILG 
18nm S 
231251Z 00000KT 10SM CLR M01/M04 A3029 RMK AO2 SLP257 T10061044 $
KLOM 
18nm NE 
231235Z AUTO 00000KT 10SM CLR M04/M07 A3026 RMK AO2 T10361072
TAF
KPHL 
18nm E 
231133Z 2312/2418 23006KT P6SM SKC FM232200 20006KT P6SM FEW150 FM240200 VRB04KT P6SM FEW080 FEW250 FM241400 21006KT P6SM SCT200
KILG 
18nm S 
231133Z 2312/2412 23005KT P6SM SKC FM232200 20006KT P6SM FEW150 FM240200 VRB04KT P6SM FEW080 FEW250
NOTAMs
Click for the latest NOTAMs
NOTAMs are issued by the DoD/FAA and will open in a separate window not controlled by AirNav.

 

 
 

Would you like to see your business listed on this page?

 If your business provides an interesting product or service to pilots, flight crews, aircraft, or users of the Chester County Hospital Heliport, you should consider listing it here.  To start the listing process, click on the button below
 
Add a business
 

Other Pages about Chester County Hospital Heliport

Update a link
 
Copyright © AirNav, LLC. All rights reserved. Privacy Policy  Contact